Regional Weather Roundup
Issued by NWS

Home | Current Version | Previous Version | Text Only | Print | Product List | Glossary On
Versions: 1 2 3 4 5 6 7 8 9 10 11 12 13 14 15 16 17 18 19 20 21 22 23 24 25 26 27 28 29 30 31 32 33 34 35 36 37 38 39 40 41 42 43 44 45 46 47 48 49 50
000
ASCA42 TJSJ 040710
RWRPR
PUERTO RICO/U.S. VIRGIN ISLANDS HOURLY WEATHER ROUNDUP
NATIONAL WEATHER SERVICE SAN JUAN PR
300 AM AST MON MAY 04 2015

PRZ001-004-040800-
PUERTO RICO

CITY           SKY/WX    TMP DP  RH WIND       PRES   REMARKS
SAN JUAN LMM   PTCLDY    79  73  83 E5        30.01S
PONCE          PTCLDY    75  66  73 CALM      29.97S
$$

PRZ006-007-040800-
U.S. VIRGIN ISLANDS

CITY           SKY/WX    TMP DP  RH WIND       PRES   REMARKS
CHARLOTTE AMA  PTCLDY    79  73  83 E10       29.99F
CHRISTIANSTED  PTCLDY    79  72  78 E8        30.00F
$$

HOURLY WEATHER ROUNDUP FOR THE NEWS MEDIA

CITY           SKY/WX    TMP DP  RH WIND       PRES   REMARKS
ORLANDO        CLEAR     66  56  70 NE6       30.17F
NEW YORK       CLEAR     50  46  86 CALM      30.18S
NEWARK         CLEAR     59  42  53 S5        30.16S
CHICAGO        CLOUDY    67  47  48 SW15G22   29.90S
HARTFORD       PTCLDY    47  45  93 S6        30.19S
BOSTON         CLEAR     50  43  77 SW7       30.16S
DALLAS         MOCLDY    70  60  70 S16       29.99S
PHILADELPHIA   CLEAR     58  49  72 CALM      30.17F
LOS ANGELES    CLEAR     56  52  86 SW7       29.91R
WASHINGTON DC  PTCLDY    55  44  66 S5        30.17S


USA.gov is the U.S. government's official web portal to all federal, state and local government web resources and services.